{"data":{"norad_id":69408,"intl_designator":"2026-125H","name":"QIANFAN-190","alt_names":[],"object_type":"PAYLOAD","status":"ACTIVE","operator":null,"country":"PRC","launch_date":"2026-06-05","launch_site_code":"WSC","launch_vehicle":null,"mission":null,"orbit_class":"UNKNOWN","rcs_meters":null,"size_class":null,"mass_kg":null,"dimensions":null,"purposes":[],"wikipedia_slug":null,"has_3d_model":false,"image_url":null,"decayed_at":null,"tle_current":{"epoch":"2026-09-20T04:11:55.044096Z","epoch_age_seconds":62674,"freshness":"FRESH","line1":"1 69408U 26125H   26263.17494264  .00000026  00000+0  21270-4 0  9992","line2":"2 69408  88.9867 270.3392 0001936  97.8880 262.2491 13.51019021 14778","mean_motion":13.51019021,"eccentricity":0.0001936,"inclination_deg":88.9867,"raan_deg":270.3392,"arg_perigee_deg":97.888,"mean_anomaly_deg":262.2491,"bstar":2.127e-5,"rev_number":1477,"period_min":106.58621215667,"perigee_km":1067.0700189823,"apogee_km":1069.9533613552,"semimajor_km":7446.6486901687,"source":"CELESTRAK","updated_at":"2026-09-20T09:00:24.866361Z"}}}